ELY5108 UGTB-LLBG

Flight info

Callsign ELY5108
Flight time 2h 28m
Altitude 34000
Route ZAGOT DCT NOLGA UG261 TBN UW706 SIV UT284 EVKIT/N0448F350 UB545 VESAR/N0447F340 DCT EMEDA/N0449F350 DCT TUZIB DCT AZERE L189 ZUKKO
Aircraft B738/M-SDE2E3FGHIRWXY/LB1

Departure

Time 2026-05-06 11:11
Airport Tbilisi International Airport (UGTB)

Arrival

Time 2026-05-06 13:40
Airport Ben Gurion International Airport (LLBG)
Time Latitude Longitude Altitude Speed Heading
2026-05-06 10:48 41.67034 44.96135 1526 ft 0 kts 43°
2026-05-06 10:56 41.67033 44.96135 1526 ft 0 kts 43°
2026-05-06 11:01 41.67033 44.96134 1526 ft 0 kts 43°
2026-05-06 11:04 41.67021 44.96118 1518 ft 3 kts 47°
2026-05-06 11:04 41.67007 44.96097 1521 ft 3 kts 54°
2026-05-06 11:04 41.66999 44.96081 1519 ft 3 kts 62°
2026-05-06 11:04 41.66991 44.96048 1522 ft 3 kts 99°
2026-05-06 11:05 41.66995 44.96034 1523 ft 2 kts 132°
2026-05-06 11:05 41.66996 44.96033 1523 ft 0 kts 133°
2026-05-06 11:07 41.66992 44.96038 1523 ft 2 kts 133°
2026-05-06 11:07 41.66967 44.96074 1520 ft 8 kts 133°
2026-05-06 11:07 41.66915 44.96148 1521 ft 14 kts 133°
2026-05-06 11:08 41.66843 44.96261 1526 ft 18 kts 135°
2026-05-06 11:08 41.66754 44.96386 1522 ft 18 kts 131°
2026-05-06 11:08 41.66643 44.96416 1519 ft 17 kts 196°
2026-05-06 11:08 41.66528 44.96380 1522 ft 17 kts 192°
2026-05-06 11:09 41.66416 44.96346 1524 ft 16 kts 194°
2026-05-06 11:09 41.66310 44.96309 1524 ft 15 kts 194°
2026-05-06 11:09 41.66205 44.96305 1523 ft 16 kts 168°
2026-05-06 11:09 41.66096 44.96395 1525 ft 22 kts 134°
2026-05-06 11:10 41.65972 44.96555 1525 ft 28 kts 136°
2026-05-06 11:10 41.65849 44.96571 1525 ft 15 kts 219°
2026-05-06 11:10 41.65841 44.96457 1524 ft 13 kts 302°
2026-05-06 11:10 41.65932 44.96345 1521 ft 38 kts 316°
2026-05-06 11:11 41.66294 44.95889 1523 ft 102 kts 316°
2026-05-06 11:11 41.66956 44.95070 1532 ft 155 kts 318°
2026-05-06 11:11 41.67796 44.94045 2054 ft 163 kts 317°
2026-05-06 11:11 41.68625 44.93003 2812 ft 169 kts 317°
2026-05-06 11:12 41.69519 44.91877 3337 ft 190 kts 317°
2026-05-06 11:12 41.70552 44.90576 3595 ft 216 kts 317°
2026-05-06 11:12 41.71706 44.89122 3802 ft 238 kts 317°
2026-05-06 11:12 41.72941 44.87569 4208 ft 251 kts 317°
2026-05-06 11:13 41.74264 44.85906 4580 ft 268 kts 317°
2026-05-06 11:13 41.75632 44.84184 5353 ft 270 kts 317°
2026-05-06 11:13 41.77002 44.82460 6206 ft 271 kts 317°
2026-05-06 11:13 41.78383 44.80722 6961 ft 274 kts 316°
2026-05-06 11:14 41.79584 44.78757 7709 ft 274 kts 291°
2026-05-06 11:14 41.79887 44.76269 8487 ft 273 kts 268°
2026-05-06 11:14 41.79836 44.73711 9242 ft 276 kts 267°
2026-05-06 11:14 41.79771 44.71123 9994 ft 279 kts 267°
2026-05-06 11:15 41.79703 44.68486 10477 ft 292 kts 267°
2026-05-06 11:15 41.79634 44.65662 10633 ft 315 kts 267°
2026-05-06 11:15 41.79564 44.62632 10820 ft 336 kts 267°
2026-05-06 11:15 41.79495 44.59434 11179 ft 349 kts 267°
2026-05-06 11:16 41.79426 44.56157 11793 ft 353 kts 267°
2026-05-06 11:16 41.79357 44.52865 12516 ft 355 kts 267°
2026-05-06 11:16 41.79289 44.49546 13163 ft 358 kts 267°
2026-05-06 11:16 41.79221 44.46191 13808 ft 362 kts 267°
2026-05-06 11:17 41.79150 44.42800 14393 ft 365 kts 267°
2026-05-06 11:17 41.79078 44.39385 14982 ft 368 kts 267°
2026-05-06 11:17 41.79004 44.35940 15589 ft 371 kts 266°
2026-05-06 11:17 41.78928 44.32475 16155 ft 374 kts 266°
2026-05-06 11:18 41.78851 44.28978 16728 ft 377 kts 266°
2026-05-06 11:18 41.78773 44.25454 17308 ft 380 kts 266°
2026-05-06 11:18 41.78692 44.21904 17868 ft 383 kts 266°
2026-05-06 11:18 41.78609 44.18319 18382 ft 387 kts 266°
2026-05-06 11:19 41.78507 44.14704 18890 ft 389 kts 263°
2026-05-06 11:19 41.77901 44.11195 19390 ft 387 kts 248°
2026-05-06 11:19 41.76887 44.07846 19895 ft 389 kts 246°
2026-05-06 11:19 41.75837 44.04492 20333 ft 392 kts 246°
2026-05-06 11:20 41.74775 44.01110 20771 ft 395 kts 246°
2026-05-06 11:20 41.73712 43.97699 21245 ft 398 kts 246°
2026-05-06 11:20 41.72651 43.94266 21725 ft 400 kts 246°
2026-05-06 11:20 41.71590 43.90813 22184 ft 403 kts 246°
2026-05-06 11:21 41.70523 43.87328 22624 ft 406 kts 246°
2026-05-06 11:21 41.69452 43.83823 23065 ft 408 kts 246°
2026-05-06 11:21 41.68374 43.80296 23479 ft 411 kts 246°
2026-05-06 11:21 41.67288 43.76744 23843 ft 414 kts 246°
2026-05-06 11:22 41.66194 43.73169 24198 ft 416 kts 246°
2026-05-06 11:22 41.65094 43.69582 24568 ft 418 kts 246°
2026-05-06 11:22 41.63990 43.65986 24914 ft 419 kts 246°
2026-05-06 11:22 41.62878 43.62371 25250 ft 422 kts 246°
2026-05-06 11:23 41.61758 43.58734 25572 ft 424 kts 246°
2026-05-06 11:23 41.60635 43.55090 25908 ft 426 kts 246°
2026-05-06 11:23 41.59503 43.51426 26225 ft 428 kts 246°
2026-05-06 11:23 41.58365 43.47747 26549 ft 429 kts 246°
2026-05-06 11:24 41.57221 43.44052 26847 ft 431 kts 246°
2026-05-06 11:24 41.56070 43.40341 27144 ft 433 kts 246°
2026-05-06 11:24 41.54914 43.36618 27444 ft 435 kts 246°
2026-05-06 11:24 41.53753 43.32882 27724 ft 437 kts 246°
2026-05-06 11:25 41.52583 43.29127 28015 ft 439 kts 246°
2026-05-06 11:25 41.51411 43.25368 28360 ft 439 kts 245°
2026-05-06 11:25 41.50240 43.21614 28799 ft 437 kts 245°
2026-05-06 11:25 41.49074 43.17884 29230 ft 435 kts 245°
2026-05-06 11:26 41.47910 43.14167 29607 ft 434 kts 245°
2026-05-06 11:26 41.46747 43.10455 29976 ft 434 kts 245°
2026-05-06 11:26 41.45585 43.06751 30321 ft 432 kts 245°
2026-05-06 11:26 41.44427 43.03067 30657 ft 431 kts 245°
2026-05-06 11:27 41.43285 42.99376 30956 ft 431 kts 248°
2026-05-06 11:27 41.42434 42.95548 31229 ft 433 kts 257°
2026-05-06 11:27 41.41933 42.91592 31546 ft 432 kts 258°
2026-05-06 11:27 41.41470 42.87636 31840 ft 432 kts 259°
2026-05-06 11:28 41.41005 42.83630 32135 ft 432 kts 258°
2026-05-06 11:28 41.40542 42.79690 32420 ft 431 kts 258°
2026-05-06 11:28 41.40077 42.75803 32709 ft 430 kts 258°
2026-05-06 11:28 41.39743 42.73045 32910 ft 430 kts 258°
2026-05-06 11:29 41.39263 42.69127 33158 ft 429 kts 258°
2026-05-06 11:29 41.38778 42.65209 33454 ft 428 kts 258°
2026-05-06 11:29 41.38292 42.61304 33764 ft 427 kts 258°
2026-05-06 11:29 41.37805 42.57408 33987 ft 427 kts 258°
2026-05-06 11:30 41.37316 42.53510 34074 ft 427 kts 258°
2026-05-06 11:30 41.36332 42.45696 34086 ft 428 kts 258°
2026-05-06 11:31 41.35345 42.37892 34086 ft 427 kts 258°
2026-05-06 11:31 41.34358 42.30126 34100 ft 425 kts 258°
2026-05-06 11:32 41.33367 42.22388 34114 ft 424 kts 258°
2026-05-06 11:32 41.32374 42.14662 34115 ft 424 kts 258°
2026-05-06 11:33 41.31375 42.06933 34130 ft 425 kts 258°
2026-05-06 11:33 41.30363 41.99177 34132 ft 427 kts 258°
2026-05-06 11:34 41.29343 41.91386 34127 ft 429 kts 258°
2026-05-06 11:34 41.28314 41.83563 34129 ft 430 kts 258°
2026-05-06 11:35 41.27276 41.75708 34135 ft 432 kts 258°
2026-05-06 11:35 41.26230 41.67845 34129 ft 432 kts 258°
2026-05-06 11:36 41.25178 41.59974 34127 ft 433 kts 258°
2026-05-06 11:36 41.24122 41.52110 34123 ft 432 kts 257°
2026-05-06 11:37 41.23060 41.44256 34133 ft 432 kts 257°
2026-05-06 11:37 41.21997 41.36422 34146 ft 431 kts 257°
2026-05-06 11:38 41.20928 41.28596 34126 ft 430 kts 257°
2026-05-06 11:38 41.19856 41.20791 34159 ft 429 kts 257°
2026-05-06 11:39 41.18781 41.13007 34144 ft 428 kts 257°
2026-05-06 11:39 41.17702 41.05224 34154 ft 429 kts 257°
2026-05-06 11:40 41.16616 40.97439 34156 ft 430 kts 257°
2026-05-06 11:40 41.15522 40.89639 34155 ft 430 kts 257°
2026-05-06 11:41 41.14422 40.81829 34164 ft 431 kts 257°
2026-05-06 11:41 41.13315 40.74012 34153 ft 431 kts 258°
2026-05-06 11:42 41.12390 40.67511 34158 ft 432 kts 258°
2026-05-06 11:42 41.11272 40.59688 34154 ft 432 kts 258°
2026-05-06 11:43 41.10147 40.51860 34154 ft 433 kts 258°
2026-05-06 11:43 41.09015 40.44018 34146 ft 433 kts 257°
2026-05-06 11:44 41.07304 40.32242 34142 ft 434 kts 257°
2026-05-06 11:44 41.06156 40.24389 34145 ft 434 kts 257°
2026-05-06 11:45 41.05001 40.16527 34145 ft 435 kts 257°
2026-05-06 11:45 41.03839 40.08663 34149 ft 435 kts 257°
2026-05-06 11:46 41.02672 40.00797 34156 ft 435 kts 257°
2026-05-06 11:46 41.01499 39.92926 34159 ft 436 kts 257°
2026-05-06 11:47 41.00319 39.85041 34158 ft 436 kts 257°
2026-05-06 11:47 40.98693 39.77338 34151 ft 434 kts 244°
2026-05-06 11:48 40.95925 39.70255 34158 ft 433 kts 241°
2026-05-06 11:48 40.93089 39.63215 34154 ft 434 kts 241°
2026-05-06 11:49 40.90280 39.56163 34153 ft 433 kts 241°
2026-05-06 11:49 40.87484 39.49099 34141 ft 434 kts 242°
2026-05-06 11:50 40.84687 39.42032 34132 ft 434 kts 242°
2026-05-06 11:50 40.81885 39.34973 34127 ft 434 kts 242°
2026-05-06 11:51 40.79059 39.27869 34128 ft 435 kts 241°
2026-05-06 11:51 40.76261 39.20855 34119 ft 435 kts 241°
2026-05-06 11:52 40.73442 39.13804 34117 ft 435 kts 241°
2026-05-06 11:52 40.70617 39.06755 34119 ft 435 kts 241°
2026-05-06 11:53 40.67790 38.99715 34122 ft 434 kts 241°
2026-05-06 11:53 40.64960 38.92684 34119 ft 435 kts 241°
2026-05-06 11:54 40.62119 38.85658 34116 ft 435 kts 241°
2026-05-06 11:54 40.59264 38.78638 34113 ft 435 kts 241°
2026-05-06 11:55 40.56408 38.71625 34116 ft 435 kts 241°
2026-05-06 11:55 40.53546 38.64609 34109 ft 435 kts 241°
2026-05-06 11:56 40.50681 38.57601 34102 ft 435 kts 241°
2026-05-06 11:56 40.47751 38.50651 34105 ft 435 kts 240°
2026-05-06 11:57 40.44782 38.43738 34103 ft 435 kts 240°
2026-05-06 11:57 40.41818 38.36818 34096 ft 435 kts 240°
2026-05-06 11:58 40.38860 38.29910 34099 ft 434 kts 240°
2026-05-06 11:58 40.35954 38.22904 34088 ft 435 kts 242°
2026-05-06 11:59 40.33154 38.15882 34086 ft 434 kts 242°
2026-05-06 11:59 40.30270 38.08925 34088 ft 435 kts 241°
2026-05-06 12:00 40.27315 38.02010 34077 ft 435 kts 240°
2026-05-06 12:00 40.24361 37.95091 34076 ft 436 kts 241°
2026-05-06 12:01 40.21413 37.88171 34076 ft 435 kts 241°
2026-05-06 12:01 40.18468 37.81265 34079 ft 434 kts 241°
2026-05-06 12:02 40.15524 37.74377 34080 ft 434 kts 241°
2026-05-06 12:02 40.12575 37.67490 34073 ft 434 kts 241°
2026-05-06 12:03 40.09624 37.60613 34072 ft 433 kts 241°
2026-05-06 12:03 40.06676 37.53750 34078 ft 433 kts 241°
2026-05-06 12:04 40.03741 37.46879 34083 ft 433 kts 241°
2026-05-06 12:04 40.00804 37.40010 34072 ft 434 kts 241°
2026-05-06 12:05 39.97857 37.33138 34068 ft 434 kts 241°
2026-05-06 12:05 39.94905 37.26272 34077 ft 434 kts 241°
2026-05-06 12:06 39.91947 37.19405 34084 ft 435 kts 242°
2026-05-06 12:06 39.88981 37.12537 34091 ft 435 kts 242°
2026-05-06 12:07 39.86009 37.05669 34095 ft 436 kts 242°
2026-05-06 12:07 39.83032 36.98804 34103 ft 436 kts 242°
2026-05-06 12:08 39.80005 36.92035 34097 ft 437 kts 236°
2026-05-06 12:08 39.75853 36.86268 34098 ft 441 kts 219°
2026-05-06 12:09 39.70856 36.81557 34095 ft 441 kts 218°
2026-05-06 12:09 39.65850 36.76937 34086 ft 441 kts 218°
2026-05-06 12:10 39.60863 36.72292 34082 ft 441 kts 218°
2026-05-06 12:10 39.55889 36.67629 34067 ft 441 kts 218°
2026-05-06 12:11 39.50920 36.62968 34059 ft 441 kts 219°
2026-05-06 12:11 39.45959 36.58321 34071 ft 440 kts 219°
2026-05-06 12:12 39.40995 36.53681 34064 ft 440 kts 219°
2026-05-06 12:12 39.36030 36.49048 34061 ft 440 kts 219°
2026-05-06 12:13 39.31062 36.44423 34067 ft 440 kts 219°
2026-05-06 12:13 39.26098 36.39809 34076 ft 440 kts 219°
2026-05-06 12:14 39.21129 36.35198 34061 ft 440 kts 219°
2026-05-06 12:14 39.16167 36.30602 34068 ft 439 kts 219°
2026-05-06 12:15 39.11209 36.26018 34073 ft 439 kts 219°
2026-05-06 12:15 39.06252 36.21443 34071 ft 438 kts 219°
2026-05-06 12:16 39.01297 36.16878 34074 ft 438 kts 219°
2026-05-06 12:16 38.96346 36.12324 34072 ft 438 kts 219°
2026-05-06 12:17 38.91394 36.07778 34072 ft 437 kts 220°
2026-05-06 12:17 38.86445 36.03242 34076 ft 436 kts 220°
2026-05-06 12:18 38.81504 35.98722 34065 ft 436 kts 220°
2026-05-06 12:18 38.76568 35.94213 34070 ft 435 kts 220°
2026-05-06 12:19 38.71636 35.89716 34083 ft 435 kts 220°
2026-05-06 12:19 38.66704 35.85227 34072 ft 435 kts 220°
2026-05-06 12:20 38.61778 35.80751 34082 ft 434 kts 220°
2026-05-06 12:20 38.57687 35.77040 34080 ft 434 kts 220°
2026-05-06 12:21 38.52765 35.72581 34078 ft 433 kts 220°
2026-05-06 12:21 38.47846 35.68133 34067 ft 433 kts 220°
2026-05-06 12:22 38.42930 35.63694 34073 ft 433 kts 220°
2026-05-06 12:22 38.38018 35.59266 34063 ft 433 kts 220°
2026-05-06 12:23 38.33099 35.54840 34056 ft 432 kts 220°
2026-05-06 12:23 38.28187 35.50434 34063 ft 432 kts 220°
2026-05-06 12:24 38.23266 35.46033 34055 ft 433 kts 220°
2026-05-06 12:24 38.18335 35.41630 34053 ft 433 kts 220°
2026-05-06 12:25 38.13397 35.37225 34063 ft 434 kts 220°
2026-05-06 12:25 38.08447 35.32817 34051 ft 435 kts 220°
2026-05-06 12:26 38.03496 35.28415 34068 ft 435 kts 220°
2026-05-06 12:26 37.98534 35.24012 34069 ft 435 kts 220°
2026-05-06 12:27 37.93568 35.19612 34065 ft 435 kts 220°
2026-05-06 12:27 37.88598 35.15216 34065 ft 436 kts 220°
2026-05-06 12:28 37.83619 35.10818 34066 ft 437 kts 220°
2026-05-06 12:28 37.78634 35.06423 34055 ft 437 kts 220°
2026-05-06 12:29 37.73648 35.02035 34056 ft 437 kts 220°
2026-05-06 12:29 37.68665 34.97658 34056 ft 436 kts 220°
2026-05-06 12:30 37.63689 34.93293 34061 ft 435 kts 220°
2026-05-06 12:30 37.58730 34.88951 34064 ft 433 kts 220°
2026-05-06 12:31 37.53784 34.84627 34066 ft 432 kts 220°
2026-05-06 12:31 37.48845 34.80314 34055 ft 432 kts 220°
2026-05-06 12:32 37.43912 34.76016 34052 ft 431 kts 220°
2026-05-06 12:32 37.39468 34.71858 34011 ft 432 kts 221°
2026-05-06 12:33 37.34507 34.67613 34069 ft 431 kts 218°
2026-05-06 12:33 37.29513 34.63438 34074 ft 431 kts 219°
2026-05-06 12:34 37.24541 34.59199 34062 ft 432 kts 219°
2026-05-06 12:34 37.19599 34.54937 34091 ft 431 kts 219°
2026-05-06 12:35 37.14649 34.50662 34087 ft 432 kts 219°
2026-05-06 12:35 37.09699 34.46393 34073 ft 432 kts 219°
2026-05-06 12:36 37.04750 34.42135 34076 ft 431 kts 219°
2026-05-06 12:36 36.99804 34.37887 34072 ft 431 kts 219°
2026-05-06 12:37 36.94861 34.33648 34073 ft 430 kts 219°
2026-05-06 12:37 36.90469 34.29888 34067 ft 430 kts 219°
2026-05-06 12:38 36.85539 34.25672 34072 ft 429 kts 219°
2026-05-06 12:38 36.80616 34.21469 34065 ft 429 kts 219°
2026-05-06 12:39 36.75689 34.17269 34059 ft 429 kts 219°
2026-05-06 12:39 36.70764 34.13076 34067 ft 429 kts 219°
2026-05-06 12:40 36.65834 34.08889 34069 ft 429 kts 219°
2026-05-06 12:40 36.60899 34.04710 34065 ft 429 kts 218°
2026-05-06 12:41 36.55957 34.00529 34066 ft 430 kts 218°
2026-05-06 12:41 36.51008 33.96349 34064 ft 430 kts 218°
2026-05-06 12:42 36.46050 33.92166 34064 ft 431 kts 218°
2026-05-06 12:42 36.41082 33.87982 34058 ft 432 kts 218°
2026-05-06 12:43 36.36100 33.83791 34051 ft 433 kts 218°
2026-05-06 12:43 36.31109 33.79623 34061 ft 434 kts 215°
2026-05-06 12:44 36.28298 33.78181 34053 ft 444 kts 196°
2026-05-06 12:44 36.25201 33.77860 34048 ft 453 kts 180°
2026-05-06 12:44 36.22090 33.78600 34048 ft 461 kts 163°
2026-05-06 12:44 36.19212 33.80399 34086 ft 465 kts 152°
2026-05-06 12:45 36.13724 33.84686 34061 ft 467 kts 150°
2026-05-06 12:46 36.05510 33.91077 34043 ft 467 kts 152°
2026-05-06 12:46 35.99966 33.95273 34047 ft 467 kts 152°
2026-05-06 12:47 35.94367 33.99337 34038 ft 464 kts 161°
2026-05-06 12:47 35.91332 34.00557 34056 ft 456 kts 173°
2026-05-06 12:47 35.88173 34.01044 34051 ft 449 kts 184°
2026-05-06 12:48 35.82032 34.00304 34053 ft 443 kts 193°
2026-05-06 12:48 35.75954 33.99296 34052 ft 444 kts 193°
2026-05-06 12:49 35.69817 33.98321 34052 ft 445 kts 192°
2026-05-06 12:49 35.63660 33.97384 34056 ft 446 kts 192°
2026-05-06 12:50 35.57450 33.96453 34052 ft 447 kts 192°
2026-05-06 12:50 35.51353 33.95543 34054 ft 447 kts 192°
2026-05-06 12:51 35.45137 33.94614 34054 ft 447 kts 192°
2026-05-06 12:51 35.39003 33.93698 34057 ft 447 kts 193°
2026-05-06 12:52 35.32795 33.92773 34061 ft 446 kts 193°
2026-05-06 12:52 35.26635 33.91857 34053 ft 446 kts 193°
2026-05-06 12:53 35.20484 33.90943 34050 ft 445 kts 193°
2026-05-06 12:53 35.14346 33.90032 34051 ft 444 kts 193°
2026-05-06 12:54 35.08215 33.89123 34050 ft 443 kts 193°
2026-05-06 12:54 35.02098 33.88218 34047 ft 443 kts 193°
2026-05-06 12:55 34.95986 33.87315 34050 ft 442 kts 193°
2026-05-06 12:55 34.89894 33.86417 34053 ft 442 kts 193°
2026-05-06 12:56 34.83797 33.85518 34044 ft 441 kts 193°
2026-05-06 12:56 34.77703 33.84622 34053 ft 441 kts 193°
2026-05-06 12:57 34.71611 33.83727 34052 ft 441 kts 193°
2026-05-06 12:57 34.65523 33.82834 34059 ft 441 kts 193°
2026-05-06 12:58 34.59610 33.81968 34065 ft 441 kts 194°
2026-05-06 12:58 34.53516 33.81077 34062 ft 441 kts 194°
2026-05-06 12:59 34.47398 33.80311 34054 ft 447 kts 187°
2026-05-06 12:59 34.44178 33.80464 34078 ft 451 kts 183°
2026-05-06 13:00 34.39164 33.80905 34065 ft 452 kts 183°
2026-05-06 13:00 34.32838 33.81474 34066 ft 452 kts 183°
2026-05-06 13:01 34.26809 33.81965 34065 ft 452 kts 184°
2026-05-06 13:01 34.20526 33.82450 34064 ft 453 kts 184°
2026-05-06 13:02 34.14242 33.82934 34059 ft 449 kts 184°
2026-05-06 13:02 34.08111 33.83411 34060 ft 437 kts 184°
2026-05-06 13:03 34.02088 33.83871 33981 ft 436 kts 184°
2026-05-06 13:03 33.99037 33.84107 33647 ft 433 kts 184°
2026-05-06 13:03 33.96054 33.84343 33271 ft 428 kts 184°
2026-05-06 13:03 33.93098 33.84577 32888 ft 423 kts 184°
2026-05-06 13:04 33.90173 33.84806 32479 ft 420 kts 185°
2026-05-06 13:04 33.87308 33.85030 32094 ft 416 kts 185°
2026-05-06 13:04 33.84427 33.85254 31708 ft 413 kts 185°
2026-05-06 13:04 33.81567 33.85476 31330 ft 410 kts 185°
2026-05-06 13:05 33.78731 33.85695 30952 ft 407 kts 185°
2026-05-06 13:05 33.75911 33.85913 30579 ft 404 kts 185°
2026-05-06 13:05 33.73112 33.86129 30208 ft 402 kts 185°
2026-05-06 13:05 33.70330 33.86344 29790 ft 399 kts 185°
2026-05-06 13:06 33.67568 33.86557 29374 ft 396 kts 185°
2026-05-06 13:06 33.64829 33.86769 28992 ft 392 kts 185°
2026-05-06 13:06 33.62118 33.86979 28596 ft 389 kts 185°
2026-05-06 13:06 33.59433 33.87187 28234 ft 385 kts 185°
2026-05-06 13:07 33.56770 33.87392 27853 ft 382 kts 185°
2026-05-06 13:07 33.54129 33.87595 27466 ft 379 kts 185°
2026-05-06 13:07 33.51508 33.87797 27095 ft 376 kts 185°
2026-05-06 13:07 33.48905 33.87997 26732 ft 373 kts 185°
2026-05-06 13:08 33.46288 33.88197 26364 ft 371 kts 185°
2026-05-06 13:08 33.43723 33.88394 26003 ft 368 kts 185°
2026-05-06 13:08 33.41204 33.88587 25647 ft 366 kts 185°
2026-05-06 13:08 33.38635 33.88784 25267 ft 364 kts 185°
2026-05-06 13:09 33.36142 33.88975 24923 ft 363 kts 185°
2026-05-06 13:09 33.33629 33.89167 24579 ft 361 kts 185°
2026-05-06 13:09 33.31096 33.89360 24223 ft 360 kts 185°
2026-05-06 13:09 33.28601 33.89551 23847 ft 359 kts 185°
2026-05-06 13:10 33.26145 33.89738 23474 ft 358 kts 185°
2026-05-06 13:10 33.23665 33.89928 23066 ft 356 kts 185°
2026-05-06 13:10 33.21200 33.90117 22689 ft 354 kts 185°
2026-05-06 13:10 33.18747 33.90304 22338 ft 352 kts 185°
2026-05-06 13:11 33.16276 33.90489 21955 ft 350 kts 185°
2026-05-06 13:11 33.14242 33.90639 21654 ft 348 kts 185°
2026-05-06 13:11 33.11763 33.90822 21300 ft 346 kts 185°
2026-05-06 13:11 33.09400 33.90997 20962 ft 344 kts 185°
2026-05-06 13:12 33.07022 33.91172 20621 ft 342 kts 184°
2026-05-06 13:12 33.04652 33.91346 20278 ft 340 kts 184°
2026-05-06 13:12 33.02297 33.91520 19944 ft 338 kts 184°
2026-05-06 13:12 32.99954 33.91692 19605 ft 337 kts 184°
2026-05-06 13:13 32.97619 33.91864 19268 ft 336 kts 184°
2026-05-06 13:13 32.95292 33.92035 18928 ft 335 kts 184°
2026-05-06 13:13 32.92972 33.92205 18600 ft 334 kts 183°
2026-05-06 13:13 32.90656 33.92375 18234 ft 333 kts 183°
2026-05-06 13:14 32.88344 33.92545 17860 ft 332 kts 183°
2026-05-06 13:14 32.86040 33.92714 17444 ft 332 kts 183°
2026-05-06 13:14 32.83743 33.92883 17097 ft 330 kts 183°
2026-05-06 13:14 32.81454 33.93051 16752 ft 328 kts 182°
2026-05-06 13:15 32.79180 33.93219 16412 ft 327 kts 182°
2026-05-06 13:15 32.76918 33.93385 16079 ft 325 kts 182°
2026-05-06 13:15 32.74670 33.93550 15745 ft 323 kts 182°
2026-05-06 13:15 32.72431 33.93714 15416 ft 321 kts 182°
2026-05-06 13:16 32.70202 33.93877 15081 ft 320 kts 182°
2026-05-06 13:16 32.67986 33.94039 14765 ft 319 kts 181°
2026-05-06 13:16 32.65776 33.94200 14433 ft 317 kts 181°
2026-05-06 13:16 32.63577 33.94361 14106 ft 316 kts 181°
2026-05-06 13:17 32.61381 33.94522 13776 ft 315 kts 181°
2026-05-06 13:17 32.59196 33.94681 13411 ft 314 kts 181°
2026-05-06 13:17 32.57026 33.95007 13034 ft 318 kts 166°
2026-05-06 13:17 32.55148 33.96193 12802 ft 322 kts 142°
2026-05-06 13:18 32.53597 33.98003 12615 ft 323 kts 136°
2026-05-06 13:18 32.52066 33.99949 12372 ft 323 kts 135°
2026-05-06 13:18 32.50536 34.01909 12140 ft 324 kts 135°
2026-05-06 13:18 32.48996 34.03864 11908 ft 326 kts 135°
2026-05-06 13:19 32.47441 34.05817 11670 ft 325 kts 135°
2026-05-06 13:19 32.45885 34.07758 11437 ft 325 kts 135°
2026-05-06 13:19 32.44328 34.09695 11205 ft 325 kts 135°
2026-05-06 13:19 32.42947 34.11803 10941 ft 327 kts 117°
2026-05-06 13:20 32.42253 34.14353 10723 ft 324 kts 102°
2026-05-06 13:20 32.41798 34.16950 10473 ft 321 kts 101°
2026-05-06 13:20 32.41366 34.19526 10219 ft 317 kts 101°
2026-05-06 13:20 32.40925 34.22061 10070 ft 309 kts 102°
2026-05-06 13:21 32.40487 34.24504 9979 ft 300 kts 102°
2026-05-06 13:21 32.40056 34.26892 9817 ft 294 kts 102°
2026-05-06 13:21 32.39633 34.29236 9644 ft 290 kts 102°
2026-05-06 13:21 32.39215 34.31558 9485 ft 288 kts 102°
2026-05-06 13:22 32.38798 34.33880 9323 ft 289 kts 102°
2026-05-06 13:22 32.38380 34.36206 9155 ft 289 kts 102°
2026-05-06 13:22 32.38000 34.38314 9008 ft 290 kts 102°
2026-05-06 13:22 32.37580 34.40653 8830 ft 291 kts 102°
2026-05-06 13:23 32.37157 34.43003 8663 ft 292 kts 102°
2026-05-06 13:23 32.36735 34.45346 8480 ft 289 kts 102°
2026-05-06 13:23 32.36318 34.47652 8308 ft 284 kts 102°
2026-05-06 13:23 32.35908 34.49921 8138 ft 280 kts 102°
2026-05-06 13:24 32.35388 34.52132 7958 ft 279 kts 118°
2026-05-06 13:24 32.34273 34.53975 7840 ft 276 kts 129°
2026-05-06 13:24 32.33104 34.55801 7588 ft 280 kts 127°
2026-05-06 13:24 32.31950 34.57656 7350 ft 280 kts 127°
2026-05-06 13:25 32.30804 34.59505 7103 ft 277 kts 127°
2026-05-06 13:25 32.29665 34.61337 6857 ft 275 kts 127°
2026-05-06 13:25 32.28536 34.63147 6618 ft 273 kts 127°
2026-05-06 13:25 32.27413 34.64942 6373 ft 270 kts 127°
2026-05-06 13:26 32.26300 34.66720 6117 ft 268 kts 128°
2026-05-06 13:26 32.25193 34.68483 5864 ft 266 kts 128°
2026-05-06 13:26 32.24091 34.70236 5605 ft 265 kts 128°
2026-05-06 13:26 32.22997 34.71976 5348 ft 263 kts 128°
2026-05-06 13:27 32.21912 34.73700 5102 ft 261 kts 128°
2026-05-06 13:27 32.20831 34.75415 4860 ft 259 kts 128°
2026-05-06 13:27 32.19756 34.77121 4587 ft 258 kts 128°
2026-05-06 13:27 32.18689 34.78812 4328 ft 256 kts 128°
2026-05-06 13:28 32.17626 34.80496 4093 ft 255 kts 128°
2026-05-06 13:28 32.16572 34.82166 4013 ft 253 kts 128°
2026-05-06 13:28 32.15522 34.83827 4003 ft 253 kts 128°
2026-05-06 13:28 32.14457 34.85512 3996 ft 258 kts 128°
2026-05-06 13:29 32.13375 34.87222 4002 ft 262 kts 128°
2026-05-06 13:29 32.12283 34.88948 4001 ft 263 kts 128°
2026-05-06 13:29 32.11196 34.90668 3990 ft 261 kts 128°
2026-05-06 13:29 32.10113 34.92379 3989 ft 260 kts 128°
2026-05-06 13:30 32.09034 34.94083 3991 ft 259 kts 128°
2026-05-06 13:30 32.07959 34.95779 3968 ft 258 kts 128°
2026-05-06 13:30 32.06886 34.97471 3965 ft 259 kts 128°
2026-05-06 13:30 32.05796 34.99189 3969 ft 264 kts 128°
2026-05-06 13:31 32.04690 35.00935 3977 ft 267 kts 128°
2026-05-06 13:31 32.03567 35.02703 3971 ft 271 kts 128°
2026-05-06 13:31 32.02442 35.04477 3974 ft 269 kts 128°
2026-05-06 13:31 32.01325 35.06238 3967 ft 267 kts 128°
2026-05-06 13:32 32.00219 35.07978 3959 ft 263 kts 127°
2026-05-06 13:32 31.99125 35.09698 3970 ft 262 kts 128°
2026-05-06 13:32 31.98030 35.11420 3975 ft 263 kts 127°
2026-05-06 13:32 31.96933 35.13139 3965 ft 261 kts 128°
2026-05-06 13:33 31.95810 35.14766 3952 ft 247 kts 141°
2026-05-06 13:33 31.94370 35.15634 3979 ft 223 kts 171°
2026-05-06 13:33 31.92914 35.15743 3955 ft 198 kts 193°
2026-05-06 13:33 31.91600 35.15400 3989 ft 193 kts 199°
2026-05-06 13:34 31.90362 35.14829 3980 ft 191 kts 223°
2026-05-06 13:34 31.89695 35.13552 3944 ft 183 kts 263°
2026-05-06 13:34 31.89629 35.12056 3867 ft 186 kts 272°
2026-05-06 13:34 31.89652 35.10514 3770 ft 190 kts 273°
2026-05-06 13:35 31.89958 35.09029 3628 ft 185 kts 297°
2026-05-06 13:35 31.90562 35.07733 3533 ft 178 kts 297°
2026-05-06 13:35 31.91165 35.06466 3413 ft 178 kts 300°
2026-05-06 13:35 31.91792 35.05224 3290 ft 174 kts 300°
2026-05-06 13:36 31.92406 35.04028 3136 ft 170 kts 301°
2026-05-06 13:36 31.93013 35.02846 2925 ft 168 kts 300°
2026-05-06 13:36 31.93631 35.01662 2690 ft 169 kts 301°
2026-05-06 13:36 31.94236 35.00500 2459 ft 163 kts 302°
2026-05-06 13:37 31.94811 34.99393 2247 ft 151 kts 301°
2026-05-06 13:37 31.95341 34.98368 1994 ft 141 kts 301°
2026-05-06 13:37 31.95839 34.97414 1834 ft 135 kts 302°
2026-05-06 13:37 31.96354 34.96418 1615 ft 148 kts 301°
2026-05-06 13:38 31.96894 34.95371 1386 ft 149 kts 301°
2026-05-06 13:38 31.97411 34.94378 1156 ft 135 kts 302°
2026-05-06 13:38 31.97903 34.93437 986 ft 134 kts 303°
2026-05-06 13:38 31.98393 34.92490 786 ft 136 kts 301°
2026-05-06 13:39 31.98886 34.91542 593 ft 136 kts 303°
2026-05-06 13:39 31.99381 34.90590 446 ft 138 kts 303°
2026-05-06 13:39 31.99901 34.89609 201 ft 141 kts 302°
2026-05-06 13:39 32.00386 34.88679 121 ft 116 kts 302°
2026-05-06 13:40 32.00694 34.88083 118 ft 55 kts 301°
2026-05-06 13:40 32.00820 34.87839 117 ft 51 kts 301°
2026-05-06 13:40 32.00995 34.87499 120 ft 47 kts 297°
2026-05-06 13:40 32.01062 34.87183 119 ft 20 kts 271°
2026-05-06 13:41 32.01064 34.87097 119 ft 6 kts 271°
2026-05-06 13:41 32.01061 34.87075 119 ft 0 kts 257°
2026-05-06 13:42 32.01061 34.87074 119 ft 1 kts 257°
2026-05-06 13:42 32.01050 34.87061 117 ft 5 kts 218°
2026-05-06 13:42 32.00999 34.87074 117 ft 12 kts 131°
2026-05-06 13:42 32.00946 34.87170 117 ft 13 kts 121°
2026-05-06 13:43 32.00898 34.87262 118 ft 13 kts 121°
2026-05-06 13:43 32.00852 34.87352 118 ft 13 kts 121°
2026-05-06 13:43 32.00804 34.87441 117 ft 14 kts 122°
2026-05-06 13:43 32.00741 34.87565 117 ft 22 kts 121°
2026-05-06 13:44 32.00661 34.87720 116 ft 21 kts 121°
2026-05-06 13:44 32.00598 34.87842 119 ft 14 kts 121°
2026-05-06 13:44 32.00548 34.87935 118 ft 14 kts 125°
2026-05-06 13:44 32.00472 34.87935 118 ft 13 kts 217°
2026-05-06 13:45 32.00388 34.87876 117 ft 15 kts 211°
2026-05-06 13:45 32.00189 34.87717 116 ft 16 kts 252°
2026-05-06 13:45 32.00203 34.87600 119 ft 14 kts 298°
2026-05-06 13:46 32.00255 34.87517 118 ft 8 kts 334°
2026-05-06 13:46 32.00289 34.87508 117 ft 1 kts 343°
2026-05-06 13:46 32.00298 34.87506 119 ft 2 kts 343°
2026-05-06 13:46 32.00298 34.87505 119 ft 0 kts 343°